Location: Bucharest
(44.4268°N, 26.1025°E)
Time: 21:02:30
(UTC+03:00)

CUBESAT XI-V - Pass Details

Date: 03 July 2022
Orbit: 668 x 690 km, 98.1° (Epoch: 18 August)

Event Time Altitude Azimuth Distance (km) Brightness Sun altitude
Exits shadow 02:14:08 18° 122° (ESE) 1,632 ? -21.5°
Maximum altitude 02:16:54 34° 68° (ENE) 1,106 ? -21.3°
Drops below altitude 10° 02:21:02 10° 4° (N) 2,108 ? -21.2°
Sets 02:23:25 0° 356° (N) 3,024 ? -21.0°
